VELOX-1
1 40057U 14034E 17348.74776983 .00000382 00000-0 61465-4 0 9991
2 40057 98.1953 91.7725 0010735 192.0366 168.0588 14.77297950186414
DAURIA DX 1
1 40071U 14037C 17348.78713262 .00000170 00000-0 29261-4 0 9998
2 40071 98.3539 107.2180 0008095 184.3966 175.7178 14.81101458185709
UKUBE-1
1 40074U 14037F 17348.84383149 .00000330 00000-0 47041-4 0 9999
2 40074 98.3648 112.1020 0004768 172.5071 187.6226 14.83675534185967
HODOYOSHI-1
1 40299U 14070B 17348.81227463 .00000741 00000-0 34786-4 0 9996
2 40299 97.3924 68.7421 0012888 171.2980 307.9922 15.22643782172421
CHUBUSAT-1
1 40300U 14070C 17348.80899355 .00000938 00000-0 44847-4 0 9990
2 40300 97.3825 65.3080 0019996 184.1855 292.0456 15.21287584172248
QSAT-EOS
1 40301U 14070D 17348.81140168 .00002074 00000-0 87465-4 0 9999
2 40301 97.3767 65.9110 0027029 178.3525 298.7768 15.24118351172336
FIREBIRD FU3
1 40377U 15003B 17348.61263678 .00001941 00000-0 83776-4 0 9992
2 40377 099.1081 208.6283 0134120 123.8187 237.5894 15.16457132158334
FIREBIRD FU4
1 40378U 15003C 17348.80077430 .00001764 00000-0 76495-4 0 9996
2 40378 99.1083 208.9025 0134318 123.0888 238.3319 15.16470994158379
GRIFEX
1 40379U 15003D 17348.82577946 .00001457 00000-0 68029-4 0 9999
2 40379 99.1118 205.9350 0140687 132.9194 228.3940 15.13772712158203
NO-84
1 40654U 15025D 17348.20244091 .00005888 00000-0 10610-3 0 01663
2 40654 054.9902 149.9635 0168006 001.2468 358.8971 15.37458685027360
NO-83
1 40655U 15025E 17348.36388069 .00015550 00000-0 19760-3 0 01948
2 40655 054.9775 111.1091 0128414 024.3396 336.3685 15.50368755027558
DEORBITSAIL
1 40719U 15032E 17348.56442317 .00000488 00000-0 77734-4 0 9999
2 40719 097.9623 239.8790 0015298 284.9319 075.0197 14.76273106130930
NUDT-PHONESAT
1 40900U 15049B 17348.82566811 .00002558 00000-0 12000-3 0 9998
2 40900 97.4424 354.3096 0012592 320.1318 39.8991 15.20512794123890
XW-2A
1 40903U 15049E 17348.78674121 .00002165 00000-0 56731-4 0 9994
2 40903 97.4057 16.6648 0013852 342.3275 17.7487 15.39756166125423
XW-2C
1 40906U 15049H 17348.85221814 .00000778 00000-0 45222-4 0 9993
2 40906 97.4571 350.7987 0013932 313.3271 46.6799 15.14922639123583
XW-2D
1 40907U 15049J 17348.82184358 .00000840 00000-0 48368-4 0 9996
2 40907 97.4543 350.4924 0013260 311.5108 48.4986 15.15053761123584
LILACSAT-2
1 40908U 15049K 17348.81151584 .00000448 00000-0 28753-4 0 9991
2 40908 97.4649 350.0692 0014864 310.9102 49.0842 15.13350875123489
XW-2F
1 40910U 15049M 17348.84160039 .00001230 00000-0 67176-4 0 9994
2 40910 97.4555 351.4969 0013961 307.6117 52.3848 15.16116003123519
XW-2B
1 40911U 15049N 17348.83297870 .00000807 00000-0 46667-4 0 9999
2 40911 97.4582 350.9660 0013167 311.9656 48.0453 15.15005248123483
DCBB
1 40912U 15049P 17348.85029086 .00001287 00000-0 65992-4 0 9999
2 40912 97.4513 353.8534 0014071 297.1614 184.7003 15.18283622123693
TW-1C
1 40926U 15051B 17348.79371890 .00008591 00000-0 17684-3 0 9992
2 40926 97.2094 27.1218 0009260 225.6689 224.7645 15.46140691124790
TW-1A
1 40928U 15051D 17348.77463002 .00002763 00000-0 76979-4 0 9997
2 40928 97.2090 21.3102 0010333 268.0399 181.8124 15.37589762124430
IO-86
1 40931U 15052B 17348.72791956 .00000805 00000-0 23155-4 0 9992
2 40931 6.0008 25.4115 0013240 281.3412 78.5090 14.76559274119697
LQSat
1 40958U 15057A 17348.80682407 .00000036 00000-0 13426-4 0 9991
2 40958 97.9620 60.8112 0017482 203.6745 156.3660 14.73006658117701
AO-85
1 40967U 15058D 17348.39015488 .00000093 00000-0 29313-4 0 01802
2 40967 064.7785 032.1783 0186357 013.2654 347.3237 14.75589719026384
ATHENOXAT-1
1 41168U 15077C 17348.11744167 .00002106 00000-0 79945-4 0 9991
2 41168 14.9869 294.3527 0011695 352.2693 111.8338 15.12288001110312
ChubuSat-2
1 41338U 16012B 17348.51166213 .00000376 00000-0 22808-4 0 9997
2 41338 031.0045 046.8897 0013895 044.3770 315.7977 14.99887640100081
ChubuSat-3
1 41339U 16012C 17348.81504634 .00000336 00000-0 19498-4 0 9991
2 41339 31.0095 43.8273 0013637 54.1462 306.0425 15.00081612100116
Horyu-4
1 41340U 16012D 17348.50536506 .00000563 00000-0 36496-4 0 9991
2 41340 031.0064 041.9921 0014167 061.5196 298.6865 15.00832302100123
OUFTI-1
1 41458U 16025C 17348.79339717 .00001725 00000-0 93998-4 0 9992
2 41458 98.1642 36.6074 0172972 46.1950 315.3416 15.04050812 89717
e-st@r-II
1 41459U 16025D 17348.83677187 .00000827 00000-0 47716-4 0 9993
2 41459 98.1628 36.5590 0173598 46.3080 315.2373 15.03818470 89717
AAUSAT4
1 41460U 16025E 17348.71066972 .00001858 00000-0 10084-3 0 9998
2 41460 98.1575 36.6747 0165276 44.2044 317.2233 15.05026933 89732
LO-87
1 41557U 16033B 17348.76465828 .00001530 00000-0 58936-4 0 9998
2 41557 97.4514 68.2372 0015614 90.1915 270.1114 15.27818388 85992
NuSat2
1 41558U 16033C 17348.81764092 .00001561 00000-0 60395-4 0 9996
2 41558 97.4541 68.3634 0015055 88.9843 271.3121 15.27647648 85999
Lapan A3
1 41603U 16040E 17348.82530645 .00000282 00000-0 16506-4 0 9995
2 41603 97.4391 48.4205 0013794 157.2679 315.3294 15.19482151 82085
Swayam
1 41607U 16040J 17348.43580023 .00001811 00000-0 83068-4 0 9997
2 41607 097.4395 048.8048 0014587 160.1571 200.0236 15.21635211082005
Pratham
1 41783U 16059A 17348.18952812 .00000054 00000-0 19915-4 0 9991
2 41783 98.1451 47.4814 0032678 317.9035 41.9657 14.62886774 64910
AlSat 1N
1 41789U 16059G 17348.84867468 .00000068 00000-0 22195-4 0 9991
2 41789 98.1453 48.9863 0027379 309.5202 50.3564 14.64109836 65048
ScatSat
1 41790U 16059H 17348.69344285 .00000023 00000-0 17084-4 0 9995
2 41790 98.2875 34.5647 0017243 299.6600 60.2877 14.50853056 64434
TY-1
1 41844U 16066D 17348.77521906 .00001452 00000-0 65198-4 0 9995
2 41844 97.4060 353.2757 0015216 331.1529 114.8398 15.22696575 60817
CAS-2T
1 41845U 16066E 17348.84570427 .00000091 00000-0 23510-4 0 9996
2 41845 98.7681 8.7137 0367617 71.9704 292.1160 14.37838772 57459
Pegasus-1
1 41846U 16066F 17348.56816650 .00000363 00000-0 64731-4 0 9999
2 41846 098.7707 008.0886 0369690 074.7651 289.4090 14.37211963057388
STARS-C
1 41895U 98067KR 17348.55846122 .00065048 00000-0 32646-3 0 9990
2 41895 051.6325 194.6182 0004669 211.8614 148.2106 15.81097480056309
TO-89
1 41932U 98067KU 17348.45659394 .00020204 00000-0 19347-3 0 9992
2 41932 051.6376 205.3370 0004884 202.5210 157.5572 15.66650525051723
AOBA-V3LOX3
1 41935U 98067KX 17348.04765877 .00023517 00000-0 21288-3 0 9991
2 41935 51.6369 206.3400 0004382 199.6535 160.4293 15.67942464 51777
OSNSAT
1 41939U 98067KZ 17348.81990538 .00177209 23035-4 49901-3 0 9991
2 41939 51.6290 186.5181 0007183 220.6334 139.4138 15.93113917 51353
EO-88
1 42017U 17008BX 17348.54604801 .00001736 00000-0 75006-4 0 9990
2 42017 097.4744 049.5186 0005279 319.4718 040.6126 15.23834034045944
HAVELSAT
1 42700U 98067LH 17348.86676695 .00015186 00000-0 17060-3 0 9997
2 42700 51.6374 211.0538 0003874 262.3266 97.7289 15.62833634 33122
SOMP2
1 42701U 98067LJ 17348.83915101 .00014694 00000-0 16850-3 0 9992
2 42701 51.6371 211.6203 0003862 262.1368 97.9188 15.62332114 33108
Columbia
1 42702U 98067LK 17348.76643155 .00062906 00000-0 39896-3 0 9996
2 42702 51.6324 205.0778 0005151 215.4378 144.6280 15.75894557 33118
PHOENIX
1 42706U 98067LP 17348.82557543 .00012791 00000-0 14749-3 0 9999
2 42706 51.6371 211.5319 0001651 174.6142 185.4870 15.62331855 33024
X-CubeSat
1 42707U 98067LQ 17348.81230890 .00014192 00000-0 15981-3 0 9998
2 42707 51.6354 211.4271 0001865 176.8359 183.2648 15.62840765 33016
